,,,PA_Meas_PMT16A,,PR_Meas_QMR101_102,,RH_Meas_QMH101,,SR_Meas_QMS101,,TA_Meas_QMH101,,GenWind,,GenWind,
date,time,status,PA,status,PR,status,RH,status,SR,status,TA,status,DirAvg,status,SpdAvg,
2010-10-26, 00:00:05,VALID,999.531,VALID,0,VALID,90.7009,VALID,0,VALID,23.4298,VALID,262,VALID,0.522266,
2010-10-26, 00:01:05,VALID,999.522,VALID,0,VALID,90.6323,VALID,0,VALID,23.35,VALID,262,VALID,0.601563,
2010-10-26, 00:02:05,VALID,999.495,VALID,0,VALID,90.5865,VALID,0,VALID,23.2524,VALID,352,VALID,0.910547,
2010-10-26, 00:03:05,VALID,999.511,VALID,0,VALID,90.6475,VALID,0,VALID,23.1744,VALID,360,VALID,1.01406,
2010-10-26, 00:04:05,VALID,999.551,VALID,0,VALID,90.8535,VALID,0,VALID,23.1159,VALID,5,VALID,0.923828,
2010-10-26, 00:05:05,VALID,999.581,VALID,0,VALID,91.029,VALID,0,VALID,23.0378,VALID,5,VALID,0.904297,
2010-10-26, 00:06:05,VALID,999.594,VALID,0,VALID,91.2045,VALID,0,VALID,22.9793,VALID,5,VALID,0.806641,
2010-10-26, 00:07:05,VALID,999.614,VALID,0,VALID,91.4181,VALID,0,VALID,22.9403,VALID,5,VALID,0.711328,
2010-10-26, 00:08:05,VALID,999.661,VALID,0,VALID,91.8225,VALID,0,VALID,23.0201,VALID,5,VALID,0.579687,
2010-10-26, 00:09:05,VALID,999.659,VALID,0,VALID,92.0666,VALID,0,VALID,23.0591,VALID,5,VALID,0.559766,
2010-10-26, 00:10:05,VALID,999.655,VALID,0,VALID,92.1887,VALID,0,VALID,23.0573,VALID,5,VALID,0.630469,
2010-10-26, 00:11:05,VALID,999.649,VALID,0,VALID,92.1963,VALID,0,VALID,23.0573,VALID,41,VALID,1.00859,
2010-10-26, 00:12:05,VALID,999.647,VALID,0,VALID,92.1353,VALID,0,VALID,23.0981,VALID,55,VALID,1.10938,
2010-10-26, 00:13:05,VALID,999.614,VALID,0,VALID,92.0437,VALID,0,VALID,23.0981,VALID,55,VALID,0.926562,
2010-10-26, 00:14:05,VALID,999.657,VALID,0,VALID,91.9598,VALID,0,VALID,23.0769,VALID,55,VALID,0.36875,
2010-10-26, 00:15:05,VALID,999.644,VALID,0,VALID,91.9369,VALID,0,VALID,23.0573,VALID,153,VALID,1.57578,
2010-10-26, 00:16:05,VALID,999.645,VALID,0,VALID,91.9827,VALID,0,VALID,23.0769,VALID,157,VALID,1.02031,
2010-10-26, 00:17:05,VALID,999.606,VALID,0,VALID,92.0437,VALID,0,VALID,23.1176,VALID,157,VALID,0.392969,
2010-10-26, 00:18:05,VALID,999.59,VALID,0,VALID,92.0666,VALID,0,VALID,23.0964,VALID,55,VALID,0.738281,
2010-10-26, 00:19:05,VALID,999.57,VALID,0,VALID,92.1048,VALID,0,VALID,23.1159,VALID,55,VALID,0.438281,
2010-10-26, 00:20:05,VALID,999.524,VALID,0,VALID,92.1353,VALID,0,VALID,23.1566,VALID,55,VALID,0.466797,
2010-10-26, 00:21:05,VALID,999.54,VALID,0,VALID,92.1506,VALID,0,VALID,23.1354,VALID,55,VALID,0.129688,
2010-10-26, 00:22:05,VALID,999.499,VALID,0,VALID,92.1429,VALID,0,VALID,23.1354,VALID,55,VALID,0.236328,
2010-10-26, 00:23:05,VALID,999.483,VALID,0,VALID,92.1506,VALID,0,VALID,23.1566,VALID,53,VALID,0.669922,
2010-10-26, 00:24:05,VALID,999.492,VALID,0,VALID,92.1506,VALID,0,VALID,23.1354,VALID,32,VALID,1.11406,
2010-10-26, 00:25:05,VALID,999.459,VALID,0,VALID,92.2116,VALID,0,VALID,23.1762,VALID,32,VALID,1.42188,
2010-10-26, 00:26:05,VALID,999.438,VALID,0,VALID,92.1887,VALID,0,VALID,23.1159,VALID,32,VALID,1.78633,
2010-10-26, 00:27:05,VALID,999.44,VALID,0,VALID,92.0895,VALID,0,VALID,23.0786,VALID,45,VALID,1.94414,
2010-10-26, 00:28:05,VALID,999.43,VALID,0,VALID,92.0132,VALID,0,VALID,23.0201,VALID,53,VALID,1.94375,
2010-10-26, 00:29:05,VALID,999.417,VALID,0,VALID,92.0209,VALID,0,VALID,22.9793,VALID,64,VALID,1.37891,
2010-10-26, 00:30:05,VALID,999.445,VALID,0,VALID,92.1048,VALID,0,VALID,22.9793,VALID,78,VALID,1.51289,
2010-10-26, 00:31:05,VALID,999.47,VALID,0,VALID,92.1506,VALID,0,VALID,22.9598,VALID,81,VALID,1.0207,
2010-10-26, 00:32:05,VALID,999.476,VALID,0,VALID,92.204,VALID,0,VALID,22.9598,VALID,87,VALID,0.602344,
2010-10-26, 00:33:05,VALID,999.515,VALID,0,VALID,92.2726,VALID,0,VALID,22.9811,VALID,154,VALID,0.5625,
2010-10-26, 00:34:05,VALID,999.471,VALID,0,VALID,92.2803,VALID,0,VALID,22.9988,VALID,154,VALID,0.604297,
2010-10-26, 00:35:05,VALID,999.469,VALID,0,VALID,92.3337,VALID,0,VALID,23.0396,VALID,175,VALID,0.801953,
2010-10-26, 00:36:05,VALID,999.437,VALID,0,VALID,92.3718,VALID,0,VALID,23.0573,VALID,176,VALID,0.470703,
2010-10-26, 00:37:05,VALID,999.427,VALID,0,VALID,92.3489,VALID,0,VALID,23.0573,VALID,176,VALID,0.418359,
2010-10-26, 00:38:05,VALID,999.375,VALID,0,VALID,92.3337,VALID,0,VALID,23.0573,VALID,176,VALID,0.188672,
2010-10-26, 00:39:05,VALID,999.391,VALID,0,VALID,92.2726,VALID,0,VALID,23.0573,VALID,176,VALID,0.280078,
2010-10-26, 00:40:05,VALID,999.355,VALID,0,VALID,92.1963,VALID,0,VALID,23.0378,VALID,33,VALID,1.10117,
2010-10-26, 00:41:05,VALID,999.361,VALID,0,VALID,92.0514,VALID,0,VALID,22.9988,VALID,9,VALID,1.38477,
2010-10-26, 00:42:05,VALID,999.324,VALID,0,VALID,91.9751,VALID,0,VALID,22.9598,VALID,9,VALID,1.30039,
2010-10-26, 00:43:05,VALID,999.342,VALID,0,VALID,91.9827,VALID,0,VALID,22.9598,VALID,9,VALID,0.859766,
2010-10-26, 00:44:05,VALID,999.323,VALID,0,VALID,92.0361,VALID,0,VALID,22.9793,VALID,337,VALID,0.662109,
2010-10-26, 00:45:05,VALID,999.332,VALID,0,VALID,92.0819,VALID,0,VALID,22.9793,VALID,337,VALID,0.805469,
2010-10-26, 00:46:05,VALID,999.347,VALID,0,VALID,92.1353,VALID,0,VALID,22.9793,VALID,360,VALID,0.976953,
2010-10-26, 00:47:05,VALID,999.373,VALID,0,VALID,92.1582,VALID,0,VALID,22.9793,VALID,9,VALID,1.13281,
2010-10-26, 00:48:05,VALID,999.369,VALID,0,VALID,92.1887,VALID,0,VALID,22.9793,VALID,9,VALID,0.959766,
2010-10-26, 00:49:05,VALID,999.387,VALID,0,VALID,92.1506,VALID,0,VALID,22.9598,VALID,9,VALID,0.906641,
2010-10-26, 00:50:05,VALID,999.342,VALID,0,VALID,92.1353,VALID,0,VALID,22.9403,VALID,9,VALID,0.633594,
2010-10-26, 00:51:05,VALID,999.35,VALID,0,VALID,92.1277,VALID,0,VALID,22.9403,VALID,9,VALID,0.412891,
2010-10-26, 00:52:05,VALID,999.323,VALID,0,VALID,92.1429,VALID,0,VALID,22.9208,VALID,9,VALID,0.136719,
2010-10-26, 00:53:05,VALID,999.3,VALID,0,VALID,92.1277,VALID,0,VALID,22.9013,VALID,9,VALID,0.00117188,
2010-10-26, 00:54:05,VALID,999.268,VALID,0,VALID,92.1506,VALID,0,VALID,22.88,VALID,9,VALID,0.523047,
2010-10-26, 00:55:05,VALID,999.237,VALID,0,VALID,92.1658,VALID,0,VALID,22.9013,VALID,9,VALID,0.85625,
2010-10-26, 00:56:05,VALID,999.208,VALID,0,VALID,92.204,VALID,0,VALID,22.9403,VALID,9,VALID,0.960938,
2010-10-26, 00:57:05,VALID,999.179,VALID,0,VALID,92.1506,VALID,0,VALID,22.9793,VALID,9,VALID,1.16016,
2010-10-26, 00:58:05,VALID,999.168,VALID,0,VALID,92.0666,VALID,0,VALID,22.9793,VALID,21,VALID,1.14961,
2010-10-26, 00:59:05,VALID,999.14,VALID,0,VALID,91.9064,VALID,0,VALID,22.9793,VALID,21,VALID,1.03828,
2010-10-26, 01:00:05,VALID,999.113,VALID,0,VALID,91.7691,VALID,0,VALID,22.9598,VALID,21,VALID,1.02773,
2010-10-26, 01:01:05,VALID,999.094,VALID,0,VALID,91.6623,VALID,0,VALID,22.9208,VALID,42,VALID,0.938672,
2010-10-26, 01:02:05,VALID,999.073,VALID,0,VALID,91.6623,VALID,0,VALID,22.9208,VALID,55,VALID,0.940625,
2010-10-26, 01:03:05,VALID,999.052,VALID,0,VALID,91.7385,VALID,0,VALID,22.9208,VALID,19,VALID,0.685938,
2010-10-26, 01:04:05,VALID,998.977,VALID,0,VALID,91.792,VALID,0,VALID,22.9013,VALID,343,VALID,0.991797,
2010-10-26, 01:05:05,VALID,998.957,VALID,0,VALID,91.9217,VALID,0,VALID,22.9208,VALID,343,VALID,1.26797,
2010-10-26, 01:06:05,VALID,998.943,VALID,0,VALID,91.9827,VALID,0,VALID,22.9403,VALID,319,VALID,0.939844,
2010-10-26, 01:07:05,VALID,998.925,VALID,0,VALID,91.998,VALID,0,VALID,22.9598,VALID,328,VALID,1.00156,
2010-10-26, 01:08:05,VALID,998.974,VALID,0,VALID,91.9903,VALID,0,VALID,22.9598,VALID,6,VALID,0.973047,
2010-10-26, 01:09:05,VALID,998.991,VALID,0,VALID,91.8911,VALID,0,VALID,22.9793,VALID,51,VALID,0.980078,
2010-10-26, 01:10:05,VALID,999.004,VALID,0,VALID,91.8072,VALID,0,VALID,22.9598,VALID,78,VALID,1.05469,
2010-10-26, 01:11:05,VALID,998.992,VALID,0,VALID,91.792,VALID,0,VALID,22.9598,VALID,78,VALID,0.817187,
2010-10-26, 01:12:05,VALID,999.038,VALID,0,VALID,91.7691,VALID,0,VALID,22.9598,VALID,101,VALID,0.757422,
2010-10-26, 01:13:05,VALID,999.056,VALID,0,VALID,91.8072,VALID,0,VALID,22.9598,VALID,101,VALID,0.376563,
2010-10-26, 01:14:05,VALID,999.058,VALID,0,VALID,91.8148,VALID,0,VALID,22.9598,VALID,49,VALID,0.715234,
2010-10-26, 01:15:05,VALID,999.017,VALID,0,VALID,91.853,VALID,0,VALID,22.9403,VALID,26,VALID,0.809766,
2010-10-26, 01:16:05,VALID,999.036,VALID,0,VALID,91.8148,VALID,0,VALID,22.9598,VALID,9,VALID,0.831641,
2010-10-26, 01:17:05,VALID,999.014,VALID,0,VALID,91.7538,VALID,0,VALID,22.9598,VALID,357,VALID,0.883203,
2010-10-26, 01:18:05,VALID,998.959,VALID,0,VALID,91.6699,VALID,0,VALID,22.9793,VALID,351,VALID,0.785156,
2010-10-26, 01:19:05,VALID,998.936,VALID,0,VALID,91.5554,VALID,0,VALID,23.0183,VALID,348,VALID,0.357422,
2010-10-26, 01:20:05,VALID,998.923,VALID,0,VALID,91.4334,VALID,0,VALID,23.0378,VALID,262,VALID,0.642969,
2010-10-26, 01:21:05,VALID,998.867,VALID,0,VALID,91.3571,VALID,0,VALID,23.0964,VALID,186,VALID,1.3793,
2010-10-26, 01:22:05,VALID,998.862,VALID,0,VALID,91.2503,VALID,0,VALID,23.1549,VALID,179,VALID,1.5293,
2010-10-26, 01:23:05,VALID,998.817,VALID,0,VALID,91.1053,VALID,0,VALID,23.2524,VALID,147,VALID,1.46992,
2010-10-26, 01:24:05,VALID,998.784,VALID,0,VALID,90.7543,VALID,0,VALID,23.2719,VALID,143,VALID,1.33984,
2010-10-26, 01:25:05,VALID,998.773,VALID,0,VALID,90.4568,VALID,0,VALID,23.3127,VALID,143,VALID,0.981641,
2010-10-26, 01:26:05,VALID,998.725,VALID,0,VALID,90.3423,VALID,0,VALID,23.311,VALID,151,VALID,1.03008,
2010-10-26, 01:27:05,VALID,998.691,VALID,0,VALID,90.3423,VALID,0,VALID,23.3305,VALID,174,VALID,1.01992,
2010-10-26, 01:28:05,VALID,998.684,VALID,0,VALID,90.35,VALID,0,VALID,23.35,VALID,192,VALID,1.18906,
2010-10-26, 01:29:05,VALID,998.651,VALID,0,VALID,90.2279,VALID,0,VALID,23.389,VALID,192,VALID,0.939062,
2010-10-26, 01:30:05,VALID,998.599,VALID,0,VALID,89.9837,VALID,0,VALID,23.428,VALID,192,VALID,0.89375,
2010-10-26, 01:31:05,VALID,998.588,VALID,0,VALID,89.648,VALID,0,VALID,23.4866,VALID,192,VALID,0.750781,
2010-10-26, 01:32:05,VALID,998.539,VALID,0,VALID,89.3657,VALID,0,VALID,23.5079,VALID,192,VALID,0.305469,
2010-10-26, 01:33:05,VALID,998.527,VALID,0,VALID,89.3123,VALID,0,VALID,23.5061,VALID,192,VALID,0.00625,
2010-10-26, 01:34:05,VALID,998.55,VALID,0,VALID,89.32,VALID,0,VALID,23.4866,VALID,192,VALID,0.733203,
2010-10-26, 01:35:05,VALID,998.545,VALID,0,VALID,89.4115,VALID,0,VALID,23.428,VALID,23,VALID,0.844531,
2010-10-26, 01:36:05,VALID,998.568,VALID,0,VALID,89.5641,VALID,0,VALID,23.3695,VALID,23,VALID,0.719141,
2010-10-26, 01:37:05,VALID,998.583,VALID,0,VALID,89.6175,VALID,0,VALID,23.3713,VALID,23,VALID,0.330859,
2010-10-26, 01:38:05,VALID,998.62,VALID,0,VALID,89.6557,VALID,0,VALID,23.3127,VALID,23,VALID,0.0210938,
2010-10-26, 01:39:05,VALID,998.578,VALID,0,VALID,89.7243,VALID,0,VALID,23.2507,VALID,23,VALID,0.0503906,
2010-10-26, 01:40:05,VALID,998.593,VALID,0,VALID,90.0219,VALID,0,VALID,23.2524,VALID,23,VALID,0.603125,
2010-10-26, 01:41:05,VALID,998.563,VALID,0,VALID,90.1897,VALID,0,VALID,23.2117,VALID,23,VALID,0.776953,
2010-10-26, 01:42:05,VALID,998.568,VALID,0,VALID,90.2813,VALID,0,VALID,23.1939,VALID,23,VALID,1.12891,
2010-10-26, 01:43:05,VALID,998.588,VALID,0,VALID,90.2355,VALID,0.112286,VALID,23.1141,VALID,40,VALID,1.43164,
2010-10-26, 01:44:05,VALID,998.572,VALID,0,VALID,90.3805,VALID,0.112286,VALID,23.0361,VALID,79,VALID,1.56016,
2010-10-26, 01:45:05,VALID,998.597,VALID,0,VALID,90.6857,VALID,0,VALID,23.0166,VALID,77,VALID,0.953125,
2010-10-26, 01:46:05,VALID,998.612,VALID,0,VALID,90.9069,VALID,0,VALID,23.0378,VALID,96,VALID,0.782422,
2010-10-26, 01:47:05,VALID,998.607,VALID,0,VALID,91.0595,VALID,0,VALID,22.9971,VALID,97,VALID,0.451953,
2010-10-26, 01:48:05,VALID,998.587,VALID,0,VALID,91.1816,VALID,0,VALID,23.0183,VALID,97,VALID,0.0535156,
2010-10-26, 01:49:05,VALID,998.573,VALID,0,VALID,91.2426,VALID,0.112286,VALID,22.9793,VALID,97,VALID,0,
2010-10-26, 01:50:05,VALID,998.598,VALID,0,VALID,91.3418,VALID,0,VALID,22.9776,VALID,97,VALID,0,
2010-10-26, 01:51:05,VALID,998.56,VALID,0,VALID,91.4486,VALID,0,VALID,22.9581,VALID,97,VALID,0,
2010-10-26, 01:52:05,VALID,998.55,VALID,0,VALID,91.5478,VALID,0,VALID,22.9581,VALID,97,VALID,0.129297,
2010-10-26, 01:53:05,VALID,998.53,VALID,0,VALID,91.6088,VALID,0.112286,VALID,22.9385,VALID,97,VALID,0.101563,
2010-10-26, 01:54:05,VALID,998.525,VALID,0,VALID,91.6623,VALID,0,VALID,22.942,VALID,97,VALID,0,
2010-10-26, 01:55:05,VALID,998.546,VALID,0,VALID,91.7538,VALID,0,VALID,22.9208,VALID,97,VALID,0.28125,
2010-10-26, 01:56:05,VALID,998.498,VALID,0,VALID,91.8377,VALID,0,VALID,22.942,VALID,97,VALID,0.00898437,
2010-10-26, 01:57:05,VALID,998.524,VALID,0,VALID,91.8835,VALID,0,VALID,22.9208,VALID,97,VALID,0.272266,
2010-10-26, 01:58:05,VALID,998.477,VALID,0,VALID,91.914,VALID,0,VALID,22.8818,VALID,34,VALID,0.798828,
2010-10-26, 01:59:05,VALID,998.447,VALID,0,VALID,91.9064,VALID,0,VALID,22.8835,VALID,30,VALID,0.941016,
2010-10-26, 02:00:05,VALID,998.463,VALID,0,VALID,91.8454,VALID,0,VALID,22.8232,VALID,30,VALID,1.13047,
2010-10-26, 02:01:05,VALID,998.46,VALID,0,VALID,91.8148,VALID,0,VALID,22.7842,VALID,30,VALID,1.04648,
2010-10-26, 02:02:05,VALID,998.481,VALID,0,VALID,91.8454,VALID,0,VALID,22.7664,VALID,30,VALID,0.437891,
2010-10-26, 02:03:05,VALID,998.517,VALID,0,VALID,91.8606,VALID,0,VALID,22.7469,VALID,30,VALID,0.165234,
2010-10-26, 02:04:05,VALID,998.54,VALID,0,VALID,91.9064,VALID,0,VALID,22.7257,VALID,30,VALID,0,
2010-10-26, 02:05:05,VALID,998.548,VALID,0,VALID,91.9903,VALID,0,VALID,22.7274,VALID,30,VALID,0.401563,
2010-10-26, 02:06:05,VALID,998.534,VALID,0,VALID,92.0971,VALID,0,VALID,22.7257,VALID,30,VALID,0.584375,
2010-10-26, 02:07:05,VALID,998.56,VALID,0,VALID,92.1506,VALID,0,VALID,22.7062,VALID,30,VALID,0.330469,
2010-10-26, 02:08:05,VALID,998.522,VALID,0,VALID,92.2192,VALID,0,VALID,22.7274,VALID,30,VALID,0.117969,
2010-10-26, 02:09:05,VALID,998.518,VALID,0,VALID,92.2726,VALID,0,VALID,22.7274,VALID,30,VALID,0,
2010-10-26, 02:10:05,VALID,998.497,VALID,0,VALID,92.3413,VALID,0,VALID,22.7079,VALID,30,VALID,0,
2010-10-26, 02:11:05,VALID,998.508,VALID,0,VALID,92.4023,VALID,0,VALID,22.7257,VALID,30,VALID,0,
2010-10-26, 02:12:05,VALID,998.53,VALID,0,VALID,92.4634,VALID,0,VALID,22.7257,VALID,30,VALID,0.0015625,
2010-10-26, 02:13:05,VALID,998.544,VALID,0,VALID,92.4863,VALID,0,VALID,22.7257,VALID,30,VALID,0.319922,
2010-10-26, 02:14:05,VALID,998.546,VALID,0,VALID,92.5473,VALID,0,VALID,22.7257,VALID,30,VALID,0.352734,
2010-10-26, 02:15:05,VALID,998.544,VALID,0,VALID,92.5626,VALID,0,VALID,22.7452,VALID,30,VALID,0.315234,
2010-10-26, 02:16:05,VALID,998.549,VALID,0,VALID,92.5626,VALID,0,VALID,22.786,VALID,30,VALID,0.496875,
2010-10-26, 02:17:05,VALID,998.555,VALID,0,VALID,92.5778,VALID,0,VALID,22.825,VALID,30,VALID,0.420703,
2010-10-26, 02:18:05,VALID,998.565,VALID,0,VALID,92.5473,VALID,0,VALID,22.8427,VALID,30,VALID,0.35,
2010-10-26, 02:19:05,VALID,998.551,VALID,0,VALID,92.5168,VALID,0,VALID,22.864,VALID,30,VALID,0.303906,
2010-10-26, 02:20:05,VALID,998.56,VALID,0,VALID,92.5015,VALID,0,VALID,22.8818,VALID,30,VALID,0.328906,
2010-10-26, 02:21:05,VALID,998.503,VALID,0,VALID,92.4481,VALID,0,VALID,22.9013,VALID,30,VALID,0.0515625,
2010-10-26, 02:22:05,VALID,998.492,VALID,0,VALID,92.3794,VALID,0,VALID,22.9013,VALID,117,VALID,0.8125,
2010-10-26, 02:23:05,VALID,998.498,VALID,0,VALID,92.326,VALID,0,VALID,22.9208,VALID,116,VALID,0.934375,
2010-10-26, 02:24:05,VALID,998.472,VALID,0,VALID,92.1353,VALID,0,VALID,22.9403,VALID,116,VALID,1.24453,
2010-10-26, 02:25:05,VALID,998.398,VALID,0,VALID,91.8835,VALID,0,VALID,22.9403,VALID,116,VALID,0.837891,
2010-10-26, 02:26:05,VALID,998.383,VALID,0,VALID,91.6165,VALID,0,VALID,22.9208,VALID,116,VALID,0.671875,
2010-10-26, 02:27:04,VALID,998.331,VALID,0,VALID,91.4181,VALID,0,VALID,22.9013,VALID,116,VALID,0.392578,
2010-10-26, 02:28:04,VALID,998.325,VALID,0,VALID,91.3418,VALID,0,VALID,22.8818,VALID,116,VALID,0.257813,
2010-10-26, 02:29:04,VALID,998.311,VALID,0,VALID,91.3037,VALID,0,VALID,22.8623,VALID,116,VALID,0.155859,
2010-10-26, 02:30:04,VALID,998.32,VALID,0,VALID,91.2884,VALID,0,VALID,22.8232,VALID,116,VALID,0.271484,
2010-10-26, 02:31:04,VALID,998.336,VALID,0,VALID,91.4105,VALID,0,VALID,22.8037,VALID,116,VALID,0.423438,
2010-10-26, 02:32:04,VALID,998.382,VALID,0,VALID,91.5249,VALID,0,VALID,22.8037,VALID,116,VALID,0.480078,
2010-10-26, 02:33:04,VALID,998.427,VALID,0,VALID,91.6623,VALID,0,VALID,22.8037,VALID,78,VALID,0.881641,
2010-10-26, 02:34:04,VALID,998.461,VALID,0,VALID,91.6928,VALID,0,VALID,22.7647,VALID,78,VALID,0.963281,
2010-10-26, 02:35:04,VALID,998.451,VALID,0,VALID,91.792,VALID,0,VALID,22.7452,VALID,78,VALID,0.675391,
2010-10-26, 02:36:04,VALID,998.467,VALID,0,VALID,91.8911,VALID,0,VALID,22.7452,VALID,50,VALID,0.627344,
2010-10-26, 02:37:04,VALID,998.464,VALID,0,VALID,91.9674,VALID,0,VALID,22.7664,VALID,39,VALID,0.626953,
2010-10-26, 02:38:04,VALID,998.453,VALID,0,VALID,91.9903,VALID,0,VALID,22.7062,VALID,35,VALID,0.696094,
2010-10-26, 02:39:04,VALID,998.459,VALID,0,VALID,92.0361,VALID,0,VALID,22.6867,VALID,35,VALID,0.528125,
2010-10-26, 02:40:04,VALID,998.456,VALID,0,VALID,92.0743,VALID,0,VALID,22.6672,VALID,86,VALID,0.628516,
2010-10-26, 02:41:04,VALID,998.46,VALID,0,VALID,92.1048,VALID,0,VALID,22.6884,VALID,87,VALID,0.254687,
2010-10-26, 02:42:04,VALID,998.46,VALID,0,VALID,92.1582,VALID,0,VALID,22.6672,VALID,87,VALID,0,
2010-10-26, 02:43:04,VALID,998.419,VALID,0,VALID,92.2268,VALID,0,VALID,22.6672,VALID,87,VALID,0.521484,
2010-10-26, 02:44:04,VALID,998.434,VALID,0,VALID,92.2955,VALID,0,VALID,22.6867,VALID,288,VALID,0.782422,
2010-10-26, 02:45:04,VALID,998.413,VALID,0,VALID,92.3566,VALID,0,VALID,22.6867,VALID,293,VALID,0.883594,
2010-10-26, 02:46:04,VALID,998.437,VALID,0,VALID,92.3794,VALID,0,VALID,22.7062,VALID,294,VALID,0.558594,
2010-10-26, 02:47:04,VALID,998.521,VALID,0,VALID,92.4023,VALID,0,VALID,22.7257,VALID,294,VALID,0.210547,
2010-10-26, 02:48:04,VALID,998.538,VALID,0,VALID,92.41,VALID,0,VALID,22.7062,VALID,161,VALID,0.847656,
2010-10-26, 02:49:04,VALID,998.558,VALID,0,VALID,92.4176,VALID,0,VALID,22.7062,VALID,153,VALID,0.902734,
2010-10-26, 02:50:04,VALID,998.542,VALID,0,VALID,92.3871,VALID,0,VALID,22.7257,VALID,145,VALID,0.308984,
2010-10-26, 02:51:04,VALID,998.501,VALID,0,VALID,92.3794,VALID,0,VALID,22.7452,VALID,145,VALID,0.210156,
2010-10-26, 02:52:04,VALID,998.517,VALID,0,VALID,92.326,VALID,0,VALID,22.7647,VALID,145,VALID,0.130469,
2010-10-26, 02:53:04,VALID,998.522,VALID,0,VALID,92.2803,VALID,0,VALID,22.7842,VALID,182,VALID,0.760547,
2010-10-26, 02:54:04,VALID,998.508,VALID,0,VALID,92.2497,VALID,0,VALID,22.903,VALID,208,VALID,0.926953,
2010-10-26, 02:55:04,VALID,998.563,VALID,0,VALID,92.1811,VALID,0,VALID,22.9598,VALID,171,VALID,0.977734,
2010-10-26, 02:56:04,VALID,998.572,VALID,0,VALID,92.0056,VALID,0,VALID,22.9988,VALID,171,VALID,0.615625,
2010-10-26, 02:57:04,VALID,998.614,VALID,0,VALID,91.7233,VALID,0,VALID,23.0769,VALID,171,VALID,0.380078,
2010-10-26, 02:58:04,VALID,998.673,VALID,0,VALID,91.4563,VALID,0,VALID,23.0964,VALID,171,VALID,0.701563,
2010-10-26, 02:59:04,VALID,998.703,VALID,0,VALID,91.1587,VALID,0,VALID,23.1159,VALID,170,VALID,0.706641,
2010-10-26, 03:00:04,VALID,998.697,VALID,0,VALID,90.7391,VALID,0,VALID,23.1744,VALID,159,VALID,0.889453,
2010-10-26, 03:01:04,VALID,998.693,VALID,0,VALID,90.3347,VALID,0,VALID,23.1744,VALID,159,VALID,0.716797,
2010-10-26, 03:02:04,VALID,998.7,VALID,0,VALID,90.0143,VALID,0,VALID,23.1744,VALID,159,VALID,0.701172,
2010-10-26, 03:03:04,VALID,998.735,VALID,0,VALID,89.8388,VALID,0,VALID,23.1939,VALID,159,VALID,0.517578,
2010-10-26, 03:04:04,VALID,998.753,VALID,0,VALID,89.6862,VALID,0,VALID,23.2329,VALID,159,VALID,0.649219,
2010-10-26, 03:05:04,VALID,998.78,VALID,0,VALID,89.5336,VALID,0,VALID,23.2719,VALID,179,VALID,0.838672,
2010-10-26, 03:06:04,VALID,998.785,VALID,0,VALID,89.2818,VALID,0,VALID,23.2719,VALID,180,VALID,0.599219,
2010-10-26, 03:07:04,VALID,998.79,VALID,0,VALID,89.1445,VALID,0,VALID,23.2915,VALID,180,VALID,0.354688,
2010-10-26, 03:08:04,VALID,998.787,VALID,0,VALID,89.1445,VALID,0,VALID,23.2719,VALID,196,VALID,0.450781,
2010-10-26, 03:09:04,VALID,998.777,VALID,0,VALID,89.2742,VALID,0,VALID,23.1939,VALID,283,VALID,0.749609,
2010-10-26, 03:10:04,VALID,998.8,VALID,0,VALID,89.7243,VALID,0,VALID,23.1141,VALID,290,VALID,0.589453,
2010-10-26, 03:11:04,VALID,998.817,VALID,0,VALID,90.0753,VALID,0,VALID,23.0573,VALID,290,VALID,0.294141,
2010-10-26, 03:12:04,VALID,998.799,VALID,0,VALID,90.3347,VALID,0,VALID,23.0166,VALID,290,VALID,0.0753906,
2010-10-26, 03:13:04,VALID,998.799,VALID,0,VALID,90.4949,VALID,0,VALID,22.9988,VALID,290,VALID,0,
2010-10-26, 03:14:04,VALID,998.788,VALID,0,VALID,90.5865,VALID,0,VALID,22.9793,VALID,290,VALID,0,
2010-10-26, 03:15:04,VALID,998.772,VALID,0,VALID,90.7085,VALID,0,VALID,22.9598,VALID,290,VALID,0,
2010-10-26, 03:16:04,VALID,998.77,VALID,0,VALID,90.8459,VALID,0,VALID,22.9208,VALID,290,VALID,0,
2010-10-26, 03:17:04,VALID,998.756,VALID,0,VALID,90.968,VALID,0,VALID,22.8818,VALID,290,VALID,0,
2010-10-26, 03:18:04,VALID,998.751,VALID,0,VALID,91.029,VALID,0,VALID,22.8623,VALID,290,VALID,0,
2010-10-26, 03:19:04,VALID,998.736,VALID,0,VALID,91.1816,VALID,0,VALID,22.8427,VALID,290,VALID,0.448828,
2010-10-26, 03:20:04,VALID,998.729,VALID,0,VALID,91.3723,VALID,0,VALID,22.8427,VALID,290,VALID,0.538281,
2010-10-26, 03:21:04,VALID,998.706,VALID,0,VALID,91.5554,VALID,0,VALID,22.8427,VALID,290,VALID,0.373437,
2010-10-26, 03:22:04,VALID,998.728,VALID,0,VALID,91.6851,VALID,0,VALID,22.8215,VALID,290,VALID,0.084375,
2010-10-26, 03:23:04,VALID,998.753,VALID,0,VALID,91.7691,VALID,0,VALID,22.8232,VALID,290,VALID,0,
2010-10-26, 03:24:04,VALID,998.751,VALID,0,VALID,91.853,VALID,0,VALID,22.8232,VALID,290,VALID,0,
2010-10-26, 03:25:04,VALID,998.762,VALID,0,VALID,91.8454,VALID,0,VALID,22.763,VALID,290,VALID,0.485938,
2010-10-26, 03:26:04,VALID,998.787,VALID,0,VALID,91.8454,VALID,0,VALID,22.7647,VALID,290,VALID,0.69375,
2010-10-26, 03:27:04,VALID,998.78,VALID,0,VALID,91.8988,VALID,0,VALID,22.7469,VALID,290,VALID,0.514844,
2010-10-26, 03:28:04,VALID,998.74,VALID,0,VALID,91.9064,VALID,0,VALID,22.7257,VALID,290,VALID,0.437891,
2010-10-26, 03:29:04,VALID,998.715,VALID,0,VALID,91.8759,VALID,0,VALID,22.7062,VALID,290,VALID,0.304297,
2010-10-26, 03:30:04,VALID,998.682,VALID,0,VALID,91.8683,VALID,0,VALID,22.7062,VALID,290,VALID,0.226172,
2010-10-26, 03:31:04,VALID,998.679,VALID,0,VALID,91.9217,VALID,0,VALID,22.7062,VALID,290,VALID,0.416406,
2010-10-26, 03:32:04,VALID,998.727,VALID,0,VALID,91.9751,VALID,0,VALID,22.7062,VALID,30,VALID,0.771875,
2010-10-26, 03:33:04,VALID,998.692,VALID,0,VALID,92.0285,VALID,0,VALID,22.7062,VALID,55,VALID,1.09102,
2010-10-26, 03:34:04,VALID,998.692,VALID,0,VALID,92.0285,VALID,0,VALID,22.7257,VALID,74,VALID,1.17383,
2010-10-26, 03:35:04,VALID,998.701,VALID,0,VALID,91.9903,VALID,0,VALID,22.7257,VALID,84,VALID,1.44258,
2010-10-26, 03:36:04,VALID,998.66,VALID,0,VALID,91.9751,VALID,0,VALID,22.7045,VALID,83,VALID,1.38437,
2010-10-26, 03:37:04,VALID,998.658,VALID,0,VALID,91.9827,VALID,0,VALID,22.7257,VALID,84,VALID,0.748047,
2010-10-26, 03:38:04,VALID,998.591,VALID,0,VALID,91.9522,VALID,0,VALID,22.7045,VALID,84,VALID,0.508203,
2010-10-26, 03:39:04,VALID,998.561,VALID,0,VALID,91.9674,VALID,0,VALID,22.7062,VALID,84,VALID,0.350781,
2010-10-26, 03:40:04,VALID,998.499,VALID,0,VALID,91.9598,VALID,0,VALID,22.6867,VALID,84,VALID,0.304688,
2010-10-26, 03:41:04,VALID,998.545,VALID,0,VALID,91.9674,VALID,0,VALID,22.6672,VALID,84,VALID,0.542578,
2010-10-26, 03:42:04,VALID,998.528,VALID,0,VALID,91.9674,VALID,0,VALID,22.6477,VALID,84,VALID,0.692969,
2010-10-26, 03:43:04,VALID,998.537,VALID,0,VALID,91.9827,VALID,0,VALID,22.6477,VALID,75,VALID,0.816016,
2010-10-26, 03:44:04,VALID,998.551,VALID,0,VALID,91.998,VALID,0,VALID,22.6282,VALID,86,VALID,0.989062,
2010-10-26, 03:45:04,VALID,998.525,VALID,0,VALID,92.0361,VALID,0,VALID,22.6069,VALID,86,VALID,0.989062,
2010-10-26, 03:46:04,VALID,998.503,VALID,0,VALID,92.0666,VALID,0,VALID,22.6087,VALID,74,VALID,0.653906,